STARLINK-32860, 62856

Orbit data source: Space-Track

STARLINK-32860, 62856 is a payload satellite owned by SpaceX/Seattle (US) in LEO that was launched on Sat, 01 Feb 2025 UTC via an FALCON 9 launch vehicle from the Air Force Western Test Range (AFWTR). Payload-class satellites include a variety of spacecraft equipped with specific instruments for various scientific and technological missions. These include communications satellites like Starlink; space stations such as the ISS; scientific satellites like the Hubble; Earth observation satellites from companies like Planet Labs, Umbra, and HawkEye 360; GPS; miniature CubeSats for education and research; and military/defense satellites.

Loading next visibility...
Identifier
62856, 2025-022C
Orbit
LEO
Last TLE update
8 hours ago
Origin
Manufacturer
SpaceX/Seattle
Mission
Operational Commercial Communications
Bus & Motor
STARLINK V2M, Unknown motor
Mass
730 kg wet, ~700 kg dry
Launch date (UTC)
2025-02-01 (5 months ago)
Launch vehicle
FALCON 9
Launch site
Air Force Western Test Range (AFWTR)
Object type
Payload
Rocket body
Debris
Shape & HBR
Box + 2 Pan, 29 m
Radar Cross Section
33.884 m², Large (>1 m²)

Expand to show TLE details & history

TLE from 8 hours ago
0 STARLINK-32860
1 62856U 25022C   25183.91667824 -.00450387  00000-0 -15988-1 0  9991
2 62856  53.1591 210.0637 0001001 100.4127 302.7342 15.30489506  5950
Epoch: 2025-07-02T22:00Z
TLE epoch observation values (Epoch: 2025-07-02T22:00:00.999Z)
Latitude
33.2821°
Longitude
-11.851°
Altitude
476.24 km
Speed
7.632 km/s
True Right ascension
15h 57m 22s
True Declination
33° 07' 05"
Sunlit
Object was in daylight at epoch
Visualization orbit readout
Latitude
52.84994°
Longitude
57.7699°
Altitude
481.062 km
Speed
7.632 km/s
Apparent Right ascension
02h 02m 00s
Apparent Declination
22° 41' 35"
Sunlit
Object is in daylight
Visualization observer readout
Local Sidereal Time
17:49:44
Azimuth
51.324° ENE
Elevation
-7.962°
Doppler factor
1
Orbital elements
Apogee altitude
475.293 km
Perigee altitude
473.921 km
Semi-major axis
6,852.744 km
Eccentricity
0.0001
Inclination
53.1591°
RAAN
210.0637°
Arg. of periapsis
100.4127°
True anomaly
Unknown
Mean anomaly
302.7342°
Eccentric anomaly
Unknown
Mean motion
3.82601 °/min
Orbital period
94.09 mins
BSTAR
-0.015988
Loading maneuver chart data...
Loading SW <> Apogee altitude chart data...
Loading historical data...
Loading historical data...
Loading historical data...
Loading historical data...
Loading historical data...
Loading historical data...
Loading historical data...

STARLINK-32860 Visibility forecast

Observer location: undefined°, undefined°

Span
Click to sort rows by Start time (UTC) header in descending order
Start Az.
Max El. time (UTC)
Max El. Az.
Max El.
End time (UTC)
End Az.
5 mins2025-07-03 10:51:07.753Z337.008° NNW2025-07-03 10:53:07.753Z49.92° ENE33.889°2025-07-03 10:56:07.753Z106.625° ESE
4 mins2025-07-03 12:29:07.753Z262.55° W2025-07-03 12:30:07.753Z240.829° WSW20.254°2025-07-03 12:33:07.753Z181.381° SSW
5 mins2025-07-04 03:47:07.753Z188.305° SSW2025-07-04 03:49:07.753Z116.649° SE32.806°2025-07-04 03:52:07.753Z63.381° ENE
4 mins2025-07-04 05:25:07.753Z288.631° WNW2025-07-04 05:27:07.753Z340.493° N24.536°2025-07-04 05:29:07.753Z22.657° NE
|